Weather History for Unalakleet, AK

Change the Weather History Date:

Tuesday, September 3, 2013

  Actual Average Record
Temperature  
Mean Temperature 52 °F -  
Max Temperature 55 °F 57 °F 71 °F (1974)
Min Temperature 48 °F 39 °F 26 °F (1955)
Degree Days  
Heating Degree Days 14    
Growing Degree Days 2 (Base 50)    
Moisture  
Dew Point 47 °F    
Average Humidity 82    
Maximum Humidity 88    
Minimum Humidity 72    
Precipitation  
Precipitation 0.24 in - - ()
Sea Level Pressure  
Sea Level Pressure 29.11 in    
Wind  
Wind Speed 10 mph (East)    
Max Wind Speed 16 mph    
Max Gust Speed 18 mph    
Visibility 10 miles    
Events      
Averages and records for this station are not official NWS values.
T = Trace of Precipitation, MM = Missing Value Source: NWS Daily Summary

Daily Weather History Graph

Daily Weather History Graph

Search for Another Location

Airport:

Trip Planner

Search our weather history database for the weather conditions in past years. The results will help you decide how hot, cold, wet, or windy it might be!

Date:

Astronomy

Sep. 03, 2013 Rise Set
Actual Time 7:33 AM AKDT 9:49 PM AKDT
Civil Twilight 6:41 AM AKDT 10:40 PM AKDT
Nautical Twilight 5:31 AM AKDT 11:49 PM AKDT
Astronomical Twilight 3:36 AM AKDT 1:36 AM AKDT
Moon 5:44 AM AKDT (9/3) 8:44 PM AKDT (9/3)
Length of Visible Light 15h 58m
Length of Day
14h 15m
Waning Crescent, 3% of the Moon is Illuminated
Sep 3
Waning Crescent
Sep 5
New
Sep 12
First Quarter
Sep 19
Full
Sep 26
Last Quarter

Hourly Weather History & Observations

Time (AKDT) Temp. Dew Point Humidity Pressure Visibility Wind Dir Wind Speed Gust Speed Precip Events Conditions
12:16 AM 51.8 °F 46.4 °F 82% 29.12 in 10.0 mi East 11.5 mph - N/A   Mostly Cloudy
12:36 AM 51.8 °F 46.4 °F 82% 29.12 in 10.0 mi East 10.4 mph - N/A   Overcast
12:56 AM 51.8 °F 48.2 °F 88% 29.14 in 10.0 mi East 9.2 mph - N/A   Overcast
1:16 AM 51.8 °F 48.2 °F 88% 29.14 in 10.0 mi East 9.2 mph - 0.01 in   Overcast
1:36 AM 51.8 °F 48.2 °F 88% 29.14 in 10.0 mi East 9.2 mph - 0.02 in   Overcast
1:56 AM 51.8 °F 46.4 °F 82% 29.14 in 10.0 mi East 9.2 mph - 0.02 in   Overcast
2:16 AM 51.8 °F 48.2 °F 88% 29.14 in 10.0 mi East 9.2 mph - N/A   Overcast
2:36 AM 51.8 °F 46.4 °F 82% 29.14 in 10.0 mi East 9.2 mph - 0.01 in   Overcast
2:56 AM 51.8 °F 46.4 °F 82% 29.14 in 10.0 mi East 11.5 mph - 0.01 in   Overcast
3:16 AM 51.8 °F 46.4 °F 82% 29.12 in 10.0 mi East 12.7 mph - N/A   Overcast
3:36 AM 51.8 °F 48.2 °F 88% 29.13 in 10.0 mi East 15.0 mph - N/A   Overcast
3:56 AM 51.8 °F 46.4 °F 82% 29.13 in 10.0 mi East 10.4 mph - N/A   Overcast
4:16 AM 51.8 °F 48.2 °F 88% 29.13 in 10.0 mi East 13.8 mph - N/A   Overcast
4:36 AM 51.8 °F 48.2 °F 88% 29.13 in 10.0 mi East 13.8 mph - N/A   Overcast
4:56 AM 51.8 °F 48.2 °F 88% 29.12 in 10.0 mi East 12.7 mph - N/A   Overcast
5:16 AM 51.8 °F 46.4 °F 82% 29.12 in 10.0 mi East 11.5 mph - N/A   Mostly Cloudy
5:36 AM 51.8 °F 46.4 °F 82% 29.12 in 10.0 mi East 11.5 mph - N/A   Overcast
5:56 AM 51.8 °F 46.4 °F 82% 29.12 in 10.0 mi ENE 10.4 mph - N/A   Overcast
6:16 AM 51.8 °F 46.4 °F 82% 29.12 in 10.0 mi East 11.5 mph - N/A   Overcast
6:36 AM 51.8 °F 46.4 °F 82% 29.13 in 10.0 mi East 6.9 mph - N/A   Overcast
6:56 AM 51.8 °F 46.4 °F 82% 29.13 in 10.0 mi ESE 3.5 mph - N/A   Overcast
7:16 AM 51.8 °F 46.4 °F 82% 29.13 in 10.0 mi ESE 6.9 mph - N/A   Overcast
7:36 AM 50.0 °F 46.4 °F 87% 29.12 in 10.0 mi East 9.2 mph - N/A   Overcast
7:56 AM 51.8 °F 46.4 °F 82% 29.12 in 10.0 mi East 11.5 mph - N/A   Overcast
8:16 AM 51.8 °F 46.4 °F 82% 29.12 in 10.0 mi East 10.4 mph - N/A   Overcast
8:36 AM 51.8 °F 46.4 °F 82% 29.12 in 10.0 mi East 9.2 mph - N/A   Overcast
8:56 AM 51.8 °F 46.4 °F 82% 29.12 in 10.0 mi East 11.5 mph - N/A   Overcast
9:16 AM 51.8 °F 46.4 °F 82% 29.12 in 10.0 mi East 10.4 mph - N/A   Mostly Cloudy
9:36 AM 51.8 °F 46.4 °F 82% 29.12 in 10.0 mi East 11.5 mph - N/A   Overcast
9:56 AM 51.8 °F 46.4 °F 82% 29.12 in 10.0 mi ENE 9.2 mph - N/A   Overcast
10:16 AM 51.8 °F 46.4 °F 82% 29.11 in 10.0 mi East 11.5 mph - N/A   Overcast
10:36 AM 51.8 °F 46.4 °F 82% 29.11 in 10.0 mi East 13.8 mph - N/A   Scattered Clouds
10:56 AM 51.8 °F 46.4 °F 82% 29.11 in 10.0 mi East 13.8 mph - N/A   Mostly Cloudy
11:16 AM 51.8 °F 46.4 °F 82% 29.10 in 10.0 mi East 16.1 mph - N/A   Mostly Cloudy
11:36 AM 53.6 °F 46.4 °F 77% 29.11 in 10.0 mi ENE 12.7 mph - N/A   Overcast
11:56 AM 53.6 °F 48.2 °F 82% 29.10 in 10.0 mi East 16.1 mph - N/A   Mostly Cloudy
12:16 PM 53.6 °F 48.2 °F 82% 29.10 in 10.0 mi East 15.0 mph 18.4 mph N/A   Mostly Cloudy
12:36 PM 53.6 °F 46.4 °F 77% 29.10 in 10.0 mi ENE 15.0 mph - N/A   Overcast
12:56 PM 53.6 °F 46.4 °F 77% 29.10 in 10.0 mi ENE 13.8 mph - N/A   Overcast
1:16 PM 55.4 °F 46.4 °F 72% 29.10 in 10.0 mi East 12.7 mph - N/A   Overcast
1:36 PM 55.4 °F 46.4 °F 72% 29.10 in 10.0 mi East 11.5 mph - N/A   Overcast
1:56 PM 55.4 °F 46.4 °F 72% 29.10 in 10.0 mi East 13.8 mph 18.4 mph N/A   Overcast
2:16 PM 55.4 °F 46.4 °F 72% 29.09 in 10.0 mi East 11.5 mph - N/A   Overcast
2:36 PM 53.6 °F 46.4 °F 77% 29.10 in 7.0 mi ESE 5.8 mph - N/A   Overcast
2:56 PM 53.6 °F 48.2 °F 82% 29.09 in 10.0 mi South 5.8 mph - N/A   Overcast
3:16 PM 55.4 °F 48.2 °F 77% 29.09 in 10.0 mi SE 3.5 mph - N/A   Overcast
3:36 PM 55.4 °F 48.2 °F 77% 29.09 in 10.0 mi ESE 5.8 mph - N/A   Overcast
3:56 PM 55.4 °F 48.2 °F 77% 29.09 in 10.0 mi East 11.5 mph - N/A   Overcast
4:16 PM 53.6 °F 48.2 °F 82% 29.09 in 10.0 mi East 11.5 mph - 0.02 in   Mostly Cloudy
4:36 PM 53.6 °F 48.2 °F 82% 29.08 in 10.0 mi East 10.4 mph - 0.02 in   Overcast
4:56 PM 55.4 °F 48.2 °F 77% 29.08 in 10.0 mi East 11.5 mph - 0.02 in   Overcast
5:16 PM 53.6 °F 48.2 °F 82% 29.09 in 9.0 mi East 10.4 mph - 0.01 in   Overcast
5:36 PM 53.6 °F 46.4 °F 77% 29.09 in 10.0 mi East 9.2 mph - 0.01 in   Overcast
5:56 PM 51.8 °F 44.6 °F 76% 29.09 in 7.0 mi ESE 8.1 mph - 0.13 in   Overcast
6:16 PM 51.8 °F 46.4 °F 82% 29.09 in 10.0 mi East 5.8 mph - 0.02 in   Overcast
6:36 PM 51.8 °F 48.2 °F 88% 29.09 in 10.0 mi East 8.1 mph - 0.03 in   Overcast
6:56 PM 51.8 °F 48.2 °F 88% 29.08 in 10.0 mi East 9.2 mph - 0.04 in   Overcast
7:16 PM 51.8 °F 48.2 °F 88% 29.09 in 10.0 mi East 10.4 mph - N/A   Overcast
7:36 PM 51.8 °F 48.2 °F 88% 29.09 in 10.0 mi East 9.2 mph - 0.01 in   Overcast
7:56 PM 53.6 °F 48.2 °F 82% 29.09 in 10.0 mi East 10.4 mph - 0.01 in   Mostly Cloudy
8:16 PM 51.8 °F 46.4 °F 82% 29.09 in 10.0 mi East 10.4 mph - N/A   Overcast
8:36 PM 51.8 °F 46.4 °F 82% 29.10 in 10.0 mi ESE 4.6 mph - N/A   Overcast
8:56 PM 51.8 °F 46.4 °F 82% 29.11 in 10.0 mi East 5.8 mph - N/A   Overcast
9:16 PM 51.8 °F 46.4 °F 82% 29.11 in 10.0 mi East 4.6 mph - N/A   Overcast
9:36 PM 51.8 °F 46.4 °F 82% 29.11 in 10.0 mi East 6.9 mph - N/A   Overcast
9:56 PM 50.0 °F 44.6 °F 82% 29.11 in 10.0 mi East 5.8 mph - N/A   Overcast
10:16 PM 50.0 °F 44.6 °F 82% 29.12 in 10.0 mi East 5.8 mph - N/A   Overcast
10:36 PM 50.0 °F 44.6 °F 82% 29.12 in 10.0 mi ESE 5.8 mph - N/A   Overcast
10:56 PM 48.2 °F 44.6 °F 87% 29.12 in 10.0 mi ENE 6.9 mph - 0.01 in   Overcast
11:16 PM 50.0 °F 46.4 °F 87% 29.12 in 10.0 mi East 8.1 mph - N/A   Overcast
11:36 PM 50.0 °F 46.4 °F 87% 29.13 in 10.0 mi East 10.4 mph - N/A   Overcast
11:56 PM 48.2 °F 44.6 °F 87% 29.13 in 10.0 mi East 9.2 mph - N/A   Overcast